SCP
6 5 5 4 4 5 6 6 7 8 7 7 7 7 6 6 6 7 9 10 11 11 8 5 3 3 3 3 4 3 1 0 0 1 0 0 0 0 0 0 0 0 0
5 5 5 4 5 5 6 7 8 8 8 8 8 8 7 7 6 6 8 10 10 9 6 4 3 3 2 3 2 2 1 0 0 0 0 0 0 0 0 0 0 0 0
5 5 5 5 6 6 7 8 9 9 8 8 8 8 9 8 6 5 6 6 6 5 3 2 2 2 2 2 1 1 0 0 0 0 0 0 0 0 0 0 0 0 0
5 5 6 7 8 8 8 9 10 9 9 8 7 8 8 8 6 4 3 3 2 2 1 1 1 1 1 1 1 0 0 0 0 0 0 0 0 0 0 0 0 0 0
6 6 7 8 9 9 9 10 10 9 8 7 6 6 6 6 4 3 2 2 1 1 1 1 1 1 1 1 0 0 0 0 0 0 0 0 0 0 0 0 0 0 0
6 6 6 6 7 8 9 9 8 7 7 6 5 5 5 4 3 2 1 1 1 1 1 0 0 0 0 0 0 0 0 0 0 0 0 0 0 0 0 0 0 0 0
5 5 5 4 5 5 6 7 6 5 4 4 4 4 4 3 2 1 1 1 1 1 0 0 0 0 0 0 0 0 0 0 0 0 0 0 0 0 0 0 0 0 0
4 4 3 3 3 3 4 4 4 3 3 2 3 3 2 2 1 1 1 1 0 0 0 0 0 0 0 0 0 0 0 0 0 0 0 0 0 0 0 0 0 0 0
3 2 2 2 2 2 2 3 3 2 2 1 1 1 1 1 1 0 0 0 0 0 0 0 0 0 0 0 0 0 0 0 0 0 0 0 0 0 0 0 0 0 0
1 1 1 1 1 1 1 1 1 1 1 0 0 0 0 0 0 0 0 0 0 0 0 0 0 0 0 0 0 0 0 0 0 0 0 0 0 0 0 0 0 0 0
0 0 0 0 0 0 0 0 0 0 0 0 0 0 0 0 0 0 0 0 0 0 0 0 0 0 0 0 0 0 0 0 0 0 0 0 0 0 0 0 0 0 0
0 0 0 0 0 0 0 0 0 0 0 0 0 0 0 0 0 0 0 0 0 0 0 0 0 0 0 0 0 0 0 0 0 0 0 0 0 0 0 0 0 0 0
0 0 0 0 0 0 0 0 0 0 0 0 0 0 0 0 0 0 0 0 0 0 0 0 0 0 0 0 0 0 0 0 0 0 0 0 0 0 0 0 0 0 0
0 0 0 0 0 0 0 0 0 0 0 0 0 0 0 0 0 0 0 0 0 0 0 0 0 0 0 0 0 0 0 0 0 0 0 0 0 0 0 0 0 0 0
0 0 0 0 0 0 0 0 0 0 0 0 0 0 0 0 0 0 0 0 0 0 0 0 0 0 0 0 0 0 0 0 0 0 0 0 0 0 0 0 0 0 0
0 0 0 0 0 0 0 0 0 0 0 0 0 0 0 0 0 0 0 0 0 0 0 0 0 0 0 0 0 0 0 0 0 0 0 0 0 0 0 0 0 0 0
0 0 0 0 0 0 0 0 0 0 0 0 0 0 0 0 0 0 0 0 0 0 0 0 0 0 0 0 0 0 0 0 0 0 0 0 0 0 0 0 0 0 0
0 0 0 0 0 0 0 0 0 0 0 0 0 0 0 0 0 0 0 0 0 0 0 0 0 0 0 0 0 0 0 0 0 0 0 0 0 0 0 0 0 0 0
0 0 0 0 0 0 0 0 0 0 0 0 0 0 0 0 0 0 0 0 0 0 0 0 0 0 0 0 0 0 0 0 0 0 0 0 0 0 0 0 0 0 0
0 0 0 0 0 0 0 0 0 0 0 0 0 0 0 0 0 0 0 0 0 0 0 0 0 0 0 0 0 0 0 0 0 0 0 0 0 0 0 0 0 0 0
0 0 0 0 0 0 0 0 0 0 0 0 0 0 0 0 0 0 0 0 0 0 0 0 0 0 0 0 0 0 0 0 0 0 0 0 0 0 0 0 0 0 0
0 0 0 0 0 0 0 0 0 0 0 0 0 0 0 0 0 0 0 0 0 0 0 0 0 0 0 0 0 0 0 0 0 0 0 0 0 0 0 0 0 0 0
0 0 0 0 0 0 0 0 0 0 0 0 0 0 0 0 0 0 0 0 0 0 0 0 0 0 0 0 0 0 0 0 0 0 0 0 0 0 0 0 0 0 0
0 0 0 0 0 0 0 0 0 0 0 0 0 0 0 0 0 0 0 0 0 0 0 0 0 0 0 0 0 0 0 0 0 0 0 0 0 0 0 0 0 0 0
0 0 0 0 0 0 0 0 0 0 0 0 0 0 0 0 0 0 0 0 0 0 0 0 0 0 0 0 0 0 0 0 0 0 0 0 0 0 0 0 0 0 0
0 0 0 0 0 0 0 0 0 0 0 0 0 0 0 0 0 0 0 0 0 0 0 0 0 0 0 0 0 0 0 0 0 0 0 0 0 0 0 0 0 0 0
Wind_Speed
7 7 10 12 13 14 15 15 15 14 12 10 9 8 6 4 3 2 1 1 1 2 2 2 3 3 3 4 4 3 3 1 0 2 3 2 1 1 1 2 2 1 1
4 3 6 9 11 13 14 14 15 15 14 10 7 6 6 4 3 3 2 1 1 2 3 4 3 4 4 4 3 3 1 1 0 3 4 4 5 5 4 3 4 3 3
5 2 3 5 8 10 12 11 12 13 12 11 8 8 6 4 4 4 3 2 2 2 2 3 3 3 3 4 3 3 2 2 1 1 3 4 4 1 5 5 5 4 4
5 4 2 3 3 5 7 9 11 11 12 12 11 12 8 6 5 4 4 4 4 5 4 4 5 5 4 4 4 3 2 1 2 1 1 3 4 4 3 5 6 6 7
7 7 7 7 7 6 6 8 10 11 11 11 12 11 8 6 5 5 7 6 6 6 6 6 6 6 5 5 5 4 3 1 1 0 0 1 2 4 5 6 5 6 7
9 10 10 11 10 10 10 10 12 11 11 10 9 9 10 9 9 8 7 6 5 6 8 8 7 7 6 6 5 5 5 3 2 1 1 3 3 4 5 8 8 8 7
9 10 11 12 12 12 11 11 13 12 11 11 9 9 9 9 9 8 8 7 6 6 7 7 7 6 6 6 5 4 4 2 1 1 2 3 4 5 6 8 9 10 9
11 12 12 12 12 12 12 13 14 13 12 12 11 10 10 7 8 9 9 8 7 7 7 7 7 7 6 5 4 3 3 2 1 2 3 5 5 5 6 8 10 11 11
12 13 13 13 13 14 14 14 14 14 13 13 13 12 11 11 11 11 10 8 8 8 8 7 7 6 6 5 3 3 2 1 2 3 4 5 5 6 7 7 8 10 12
12 13 13 13 13 13 13 14 14 15 14 13 12 11 12 12 12 11 11 10 9 8 8 7 7 6 5 4 2 1 2 2 3 3 5 6 6 6 7 7 8 9 11
12 11 11 12 12 12 13 13 14 14 13 13 13 13 12 12 12 11 10 9 8 8 7 7 6 5 4 3 2 2 2 3 4 5 6 7 8 8 8 8 8 8 9
11 11 11 11 12 12 13 13 13 13 13 13 13 13 12 12 11 11 10 8 8 7 6 6 5 4 4 3 2 3 3 4 5 6 7 8 7 9 9 8 9 9 9
11 11 11 11 11 12 12 12 12 13 13 13 13 12 11 11 11 10 9 8 7 6 6 5 4 3 2 2 2 3 5 6 7 7 8 9 9 10 9 9 9 8 9
11 11 11 11 11 11 11 11 12 11 11 12 12 12 11 10 10 9 8 7 7 6 5 4 3 3 2 3 5 6 6 7 8 8 9 9 9 10 11 9 10 10 10
11 11 11 10 10 10 10 10 11 10 10 11 11 11 10 10 9 8 8 7 6 5 4 3 3 3 2 6 9 9 8 8 9 9 9 9 9 11 10 10 11 12 10
12 11 11 10 10 9 10 10 10 10 10 10 10 10 9 9 8 7 6 6 5 4 3 3 3 4 6 8 8 10 11 10 10 10 9 10 9 8 11 13 15 15 15
11 11 10 9 9 9 9 10 9 9 10 10 9 8 8 8 7 6 6 5 4 4 4 4 4 4 6 6 7 10 12 11 9 10 9 8 8 10 9 11 14 15 16
11 10 10 10 9 9 9 9 9 9 9 9 8 7 7 7 6 6 6 4 4 3 4 4 5 4 5 5 7 13 12 9 9 9 9 9 10 8 10 14 15 14 12
10 10 10 9 9 8 8 9 9 8 8 8 7 7 6 6 6 6 5 4 4 4 4 4 5 5 3 4 7 13 11 8 9 10 9 9 10 8 11 14 14 14 12
10 10 9 9 9 8 8 9 9 8 8 7 7 7 6 5 5 5 4 4 3 4 4 4 4 5 5 3 4 12 9 8 9 9 9 6 6 11 13 13 13 12 12
10 10 10 9 8 8 8 8 8 8 7 7 6 6 5 4 4 4 3 3 4 4 4 4 4 4 4 2 2 8 8 9 9 8 8 7 9 13 14 14 11 11 13
10 10 9 9 8 7 7 8 8 7 6 6 5 5 4 3 3 3 3 3 4 4 4 4 5 4 4 4 5 7 9 10 10 8 8 8 12 15 16 11 10 14 13
9 9 9 9 7 6 6 8 7 5 5 4 4 3 3 3 3 3 3 3 3 4 5 5 5 6 6 4 4 8 10 11 10 8 10 12 14 14 10 7 11 11 7
9 8 8 8 8 7 7 7 6 4 3 3 3 2 2 2 2 3 4 4 5 5 5 5 6 6 6 7 8 9 9 9 8 8 9 10 10 9 8 8 7 6 6
8 7 7 8 8 7 6 5 4 3 3 3 2 2 3 3 2 2 4 6 6 6 7 7 6 7 7 9 12 10 9 9 9 11 8 7 8 8 8 8 8 7 7
8 8 8 7 7 6 5 4 3 2 2 1 2 3 3 3 3 2 3 4 3 2 0 3 6 6 6 10 11 11 12 12 12 9 6 7 7 8 8 8 8 8 7
Wind_Direction
240 225 213 205 197 192 190 188 187 181 176 173 172 167 159 148 133 133 130 164 187 193 197 184 166 172 168 177 180 171 160 149 294 235 224 206 220 218 215 246 247 192 263
272 234 213 200 199 196 193 189 188 180 178 171 162 151 143 138 140 134 117 108 169 193 186 186 173 160 157 159 157 161 171 125 273 275 263 240 205 204 206 219 226 244 250
322 292 198 193 194 194 192 188 183 177 170 152 141 132 129 135 147 149 144 144 141 138 126 134 123 126 133 131 136 146 169 169 149 328 288 281 282 227 192 220 236 246 268
5 6 64 128 144 165 173 173 167 161 151 150 153 155 158 160 158 145 128 102 91 93 97 101 105 101 98 105 108 90 104 153 163 139 340 337 341 298 276 217 221 238 255
32 42 54 71 82 97 118 127 129 129 136 144 149 153 149 136 129 126 110 101 90 85 90 90 91 90 90 90 90 91 79 74 35 61 213 256 257 264 274 284 274 256 257
50 56 62 69 73 79 89 98 101 102 110 118 124 127 128 127 128 125 118 109 97 88 89 90 89 93 95 95 91 87 82 65 55 352 311 286 286 285 284 284 282 281 281
62 63 65 68 71 75 80 88 93 94 96 94 92 100 110 120 124 123 118 115 106 99 95 96 94 91 91 91 92 91 86 82 68 322 312 307 299 304 297 292 293 292 289
63 63 63 66 67 69 72 79 83 83 82 82 83 84 89 92 94 99 106 106 104 101 101 97 96 96 95 95 92 94 87 62 357 331 321 301 295 298 291 293 296 294 289
65 63 61 61 62 65 67 74 79 78 77 79 82 82 83 87 94 99 100 100 102 105 102 101 98 93 87 84 81 71 55 22 328 316 303 299 303 291 294 292 289 292 295
68 63 60 60 61 65 70 72 75 77 77 78 80 84 86 91 96 96 94 96 99 101 102 96 90 87 84 83 78 93 54 348 335 323 316 307 302 306 291 287 288 286 288
72 67 65 65 67 70 74 76 78 80 80 82 84 86 87 90 92 93 95 97 97 97 95 95 96 96 94 84 59 25 5 338 329 315 310 305 307 302 304 296 291 289 291
79 75 74 73 73 73 75 78 81 84 85 85 86 86 87 89 91 92 93 96 94 94 97 98 95 88 75 55 25 357 344 328 319 315 311 308 307 304 293 297 297 297 296
88 83 79 77 77 78 78 79 80 82 86 89 90 90 91 92 92 91 89 89 91 90 89 88 83 75 60 29 358 337 326 321 317 316 312 310 306 300 300 299 294 294 292
94 90 85 82 80 80 81 82 83 86 89 90 90 88 87 88 88 86 84 82 83 84 81 77 70 51 22 6 349 334 327 319 314 310 306 303 303 303 305 298 295 297 297
100 95 93 91 90 89 87 86 87 88 90 91 90 89 87 84 81 79 78 77 77 77 70 63 50 17 19 24 357 335 323 317 311 307 305 303 306 299 295 301 306 304 299
107 104 102 100 97 96 95 93 91 91 93 92 90 88 87 85 83 82 81 77 70 62 52 39 22 12 43 42 5 334 322 314 308 310 310 304 288 289 283 279 286 290 291
111 108 103 98 95 94 97 98 97 96 93 92 92 91 91 88 87 87 82 73 63 49 33 21 10 21 70 37 353 335 313 307 312 312 309 307 313 304 310 309 295 284 272
111 107 106 104 104 103 101 102 101 100 99 99 97 95 95 93 87 78 69 59 45 32 19 9 359 359 68 43 346 328 301 305 312 310 308 309 310 334 336 316 302 299 299
106 107 109 110 108 106 109 108 104 102 100 100 99 96 93 88 80 71 61 46 29 18 3 10 354 346 53 57 348 328 313 315 317 315 314 313 315 355 330 308 302 305 309
105 108 111 110 107 107 110 107 105 104 101 100 97 91 84 75 67 59 43 37 18 6 352 5 352 343 354 55 347 330 318 323 319 317 313 313 337 329 315 310 308 311 319
111 113 112 107 106 109 109 107 105 101 100 100 95 88 81 73 60 51 37 16 5 6 355 352 350 351 349 0 27 336 329 329 318 314 316 330 343 320 310 303 304 317 313
115 115 112 108 108 110 112 106 100 102 103 101 94 84 65 46 52 36 22 9 351 347 354 353 350 353 349 349 360 325 313 309 309 313 323 331 325 311 303 303 314 308 301
118 117 115 112 112 113 111 105 103 105 103 95 82 73 61 45 26 7 5 357 357 353 356 355 354 350 345 356 353 326 315 304 306 318 318 308 302 302 302 307 306 305 316
118 121 122 117 112 107 101 101 101 97 90 77 66 50 30 30 39 355 7 6 5 0 357 357 352 345 343 357 352 339 331 327 323 329 318 304 298 303 319 320 326 335 344
119 116 109 109 109 107 103 99 94 86 69 61 37 12 19 20 1 32 35 11 36 23 349 352 352 345 341 348 332 323 329 332 333 324 320 339 344 344 344 345 346 344 349
116 112 111 109 108 105 100 91 78 58 14 12 15 6 14 18 5 25 107 112 45 113 285 337 336 339 345 328 324 326 324 320 318 321 341 344 342 341 340 341 341 344 350